This is the latest recevied weather packets stored in our database for station/object KE5JQA-1. If no packets are shown the sender has not sent any weather packets the latest 10 day(s).
| Time | Temp. | Humidity | Pressure | Rain* | Wind** | Luminosity | Snow |
|---|---|---|---|---|---|---|---|
| 1777657216 | 13.33° C | 41% | 1014.5 hPa | 1.02 mm | - | - | - |
| 1777656016 | 13.33° C | 41% | 1015.1 hPa | 1.27 mm | - | - | - |
| 1777655416 | 13.33° C | 41% | 1014.4 hPa | 1.52 mm | - | - | - |
| 1777653956 | 12.78° C | 42% | 1015.2 hPa | 1.78 mm | - | - | - |
| 1777652716 | 13.33° C | 42% | 1015.4 hPa | 3.3 mm | - | - | - |
| 1777651537 | 13.33° C | 42% | 1015.6 hPa | 4.83 mm | - | - | - |
| 1777650916 | 13.33° C | 42% | 1015.4 hPa | 5.33 mm | - | - | - |
| 1777650016 | 13.33° C | 42% | 1017.1 hPa | 4.83 mm | - | - | - |
| 1777649116 | 13.33° C | 42% | 1017.3 hPa | 3.81 mm | - | - | - |
| 1777647016 | 13.33° C | 42% | 1017.2 hPa | 1.78 mm | - | - | - |
| 1777645216 | 13.33° C | 42% | 1015.9 hPa | 1.52 mm | - | - | - |
| 1777644616 | 13.33° C | 42% | 1016.5 hPa | 1.52 mm | - | - | - |
| 1777642236 | 13.89° C | 41% | 1015.9 hPa | 2.03 mm | - | - | - |
| 1777641616 | 13.33° C | 42% | 1015.2 hPa | 2.54 mm | - | - | - |
| 1777640736 | 13.89° C | 41% | 1014.9 hPa | 3.05 mm | - | - | - |
| 1777640136 | 13.89° C | 41% | 1014.7 hPa | 3.81 mm | - | - | - |
| 1777637716 | 13.89° C | 41% | 1016.1 hPa | 3.05 mm | - | - | - |
| 1777636817 | 13.89° C | 41% | 1015.5 hPa | 2.79 mm | - | - | - |
| 1777636516 | 13.89° C | 41% | 1015.4 hPa | 2.54 mm | - | - | - |
| 1777633838 | 13.89° C | 41% | 1014.8 hPa | 2.03 mm | - | - | - |
| 1777633238 | 14.44° C | 41% | 1015.2 hPa | 1.78 mm | - | - | - |
| 1777631716 | 14.44° C | 41% | 1014.4 hPa | 0.76 mm | - | - | - |
| 1777629618 | 14.44° C | 41% | 1014.9 hPa | 1.27 mm | - | - | - |
| 1777628417 | 14.44° C | 41% | 1015 hPa | 1.02 mm | - | - | - |
| 1777627837 | 15° C | 41% | 1015.2 hPa | 1.02 mm | - | - | - |
* Rain latest hour (hover to see other rain measurements)
** Current wind speed in m/s (hover to see current wind gust speed)